Погода в Богноре-Реджисе

Великобритания     50°46′56″N   0°42′00″E
темп.,
°C
ветер,
м/с
пор.,
м/с
влажн.,
%
обл.,
%
осадки,
мм/ч
давл.,
гПа
погр.,
м
22 апреля, чт
чт2201:00+5всв813815 0.0 1024526
04:00+4всв812821 0.0 1025477
07:00+4всв812825 0.0 1026477
10:00+8в810685 0.0 1027707
13:00+10в810630 0.0 1027774
16:00+10вюв710650 0.0 1027624
19:00+9в710694 0.0 1027394
22:00+6всв711750 0.0 1028322
23 апреля, пт
пт2301:00+5всв69810 0.0 1028284
04:00+5всв610840 0.0 1028296
07:00+5всв710840 0.0 1028337
10:00+8в911710 0.0 1029536
13:00+10в911640 0.0 1028579
16:00+10в811590 0.0 1027490
19:00+10всв711666 0.0 1027312
22:00+7всв812695 0.0 1027278
24 апреля, сб
сб2401:00+5всв7127345 0.0 1027271
04:00+5всв7128266 0.0 1026272
07:00+6всв7138299 0.0 1026369
10:00+9в91276100 0.0 1026532
13:00+11в912669 0.0 1026608
16:00+12в9126212 0.0 1025607
19:00+10всв91370100 0.0 1026515
22:00+7всв91578100 0.0 1027456
25 апреля, вс
вс2501:00+7всв9158184 0.0 1027457
04:00+7всв914855 0.0 1026455
07:00+6всв9148513 0.0 1026486
10:00+9всв912716 0.0 1027730
13:00+11в912625 0.0 1025707
16:00+12всв812624 0.0 1023546
19:00+9св1013695 0.0 1023580
22:00+6св9147686 0.0 1023396
26 апреля, пн
пн2601:00+5св914855 0.0 1021318
04:00+5св914892 0.0 1020299
07:00+5св813892 0.0 1019335
10:00+9св810730 0.0 1018564
13:00+12всв57610 0.0 1016447
16:00+13всв5659100 0.0 1014487
19:00+11всв46719 0.0 1009119
22:00+8вюв127877 0.0 101023